Flag for Austria Weather past 2 weeks in Eisenstadt, Burgenland, Austria

Now
66 °F

Overcast.


Feels Like: 66 °F
Forecast: 55 / 66 °F
Wind: 2 mph from North

Location: Eisenstadt

Current Time: Oct 1, 2014 at 2:42:34 PM

Latest Report: Oct 1, 2014 at 2:00 PM


Visibility: 13 mi

Pressure: 30.25 "Hg

Humidity: 74%

Dew point: 58 °F

Location of EisenstadtLocation

Historic Weather in Eisenstadt — Graph

°F

Eisenstadt temperature yesterday

Maximum temperature yesterday: 62 °F (at 4:00 PM)
Minimum temperature yesterday: 53 °F (at 3:00 AM)
Average temperature yesterday: 57 °F

Past Weeks' High & Low Weather Summary

 TemperatureHumidityPressure
High77 °F (Sep 21, 2:00 PM)98% (Sep 17, 7:00 AM)30.39 "Hg (Sep 17, 7:00 AM)
Low42 °F (Sep 24, 7:00 AM)49% (Sep 21, 2:00 PM)29.79 "Hg (Sep 22, 3:00 AM)
Average59 °F80%30.10 "Hg
* Reported Sep 16 1:00 PM — Oct 1 1:00 PM, Eisenstadt, Weather by CustomWeather, © 2014

Note: Actual official high and low records may vary slightly from our data, if they occured in-between our weather recording intervals... More about our weather records

Advertising

Eisenstadt weather history for previous 24 hours

 ConditionsComfort  
Time TempWeatherWind HumidityBarometerVisibility
1:00 PM
Oct 1
64 °FMild.6 mph75%30.26 "HgN/A
12:00 PM65 °FMild.1 mph76%30.27 "HgN/A
11:00 AM62 °FOvercast.5 mph85%30.26 "Hg9 mi
10:00 AM61 °FCool.2 mph87%30.26 "HgN/A
9:00 AM60 °FCool.3 mph92%30.25 "HgN/A
8:00 AM58 °FFog.1 mph94%30.26 "Hg2 mi
7:00 AM58 °FFog.No wind92%30.24 "Hg2 mi
6:00 AM57 °FOvercast.1 mph94%30.25 "Hg5 mi
5:00 AM57 °FOvercast.No wind96%30.25 "Hg6 mi
4:00 AM56 °FCool.No wind97%30.25 "HgN/A
3:00 AM56 °FCool.No wind97%30.25 "HgN/A
2:00 AM56 °FFog.1 mph97%30.25 "Hg1 mi
1:00 AM57 °FCool.2 mph95%30.25 "HgN/A
12:00 AM57 °FCool.1 mph96%30.25 "HgN/A
11:00 PM
Sep 30
57 °FPassing clouds.1 mph95%30.26 "Hg5 mi
10:00 PM58 °FCool.1 mph94%30.26 "HgN/A
9:00 PM58 °FCool.1 mph94%30.26 "HgN/A
8:00 PM59 °FPassing clouds.2 mph93%30.26 "Hg6 mi
7:00 PM60 °FPassing clouds.2 mph91%30.26 "Hg6 mi
6:00 PM62 °FCool.2 mph84%30.26 "HgN/A
5:00 PM62 °FPassing clouds.2 mph83%30.25 "Hg9 mi
4:00 PM62 °FMild.1 mph82%30.26 "HgN/A
3:00 PM62 °FCool.1 mph83%30.27 "HgN/A
2:00 PM61 °FOvercast.2 mph84%30.29 "Hg6 mi
Weather by CustomWeather, © 2014

See weather overviewHow to use our weather pages